Location: *
(50.6089°N, 2.2719°E)
Time: 04:28:50
(UTC+00:00)

STARLINK-61 - Pass Details

Date: 18 October 2019
Orbit: 530 x 533 km, 53.0° (Epoch: 14 November)

Event Time Altitude Azimuth Distance (km) Brightness Sun altitude
Rises 18:35:02 0° 271° (W) 2,675 8.9 -16.8°
Reaches altitude 10° 18:37:17 10° 275° (W) 1,786 7.6 -17.2°
Maximum altitude 18:41:18 61° 356° (N) 609 3.8 -17.8°
Enters shadow 18:42:41 37° 60° (ENE) 840 4.1 -18.0°
